Hourly Weather Roundup
Issued by NWS Central Illinois

Home | Current Version | Previous Version | Text Only | Print | Product List | Glossary On
Versions: 1 2 3 4 5 6 7 8 9 10 11 12 13 14 15 16 17 18 19 20 21 22 23 24 25 26 27 28 29 30 31 32 33 34 35 36 37 38 39 40 41 42 43 44 45 46 47 48 49 50
000
NZUS43 KILX 242210
HWRILX

AREA WEATHER ROUNDUP
NATIONAL WEATHER SERVICE, LINCOLN IL
400 PM CST FRI FEB 24 2017


CITY           SKY/WX    TMP DP  RH WIND       PRES   REMARKS
BLOOMINGTON    CLOUDY    45  39  79 W20G31    29.58R
CHAMPAIGN      MOSUNNY   55  41  59 W28G35    29.54S
DECATUR        PTSUNNY   52  40  63 W21G31    29.58R
EFFINGHAM      CLOUDY    55  49  80 W13       29.59R
FLORA          RAIN      58  50  75 W16       29.59R
GALESBURG      CLOUDY    40  37  86 SW12G21   29.58R WCI  33
JACKSONVILLE   CLOUDY    46  40  80 W10       29.62R
LACON          CLOUDY    42  37  82 W16G22    29.56R WCI  34
LAWRENCEVILLE  CLOUDY    68  55  63 SW22G28   29.54R
LITCHFIELD     SUNNY     52  41  66 W18       29.61S
$$


CITY           SKY/WX    TMP DP  RH WIND       PRES   REMARKS
LINCOLN        CLOUDY    47  41  78 W8G17     29.60R
MACOMB         CLOUDY    43  38  84 W17G24    29.62R WCI  35
MATTOON        CLOUDY    54  47  77 W20       29.56R
MT CARMEL AP   CLOUDY    67  54  62 SW18G25   29.55R
OLNEY-NOBLE AP LGT RAIN  57  55  94 W14G20    29.57R
PARIS          NOT AVBL
PEORIA         CLOUDY    44  37  76 W17       29.59R
PONTIAC        CLOUDY    46  44  91 W22G32    29.56R
RANTOUL        SUNNY     58  45  61 W20G37    29.54R
SPRINGFIELD    CLOUDY    50  39  66 W17       29.61R
TAYLORVILLE    MOSUNNY   52  39  62 W16G29    29.60R
$$

...REGIONAL REPORTS...


CITY           SKY/WX    TMP DP  RH WIND       PRES   REMARKS
CHICAGO O`HARE CLOUDY    40  38  93 NW5       29.49R FOG
KANKAKEE       CLOUDY    51  44  79 W26G32    29.51R
MOLINE         CLOUDY    40  34  79 NW9       29.57R HAZE    WCI  34
MOUNT STERLING CLOUDY    43  37  79 W10       29.61R
MOUNT VERNON   RAIN      55  48  76 VRB6      29.60R
PITTSFIELD     CLOUDY    47  37  68 SW16G26   29.64R
QUINCY         LGT RAIN  42  39  89 W12       29.62R
ROCKFORD       DRIZZLE   37  34  89 N9        29.54R FOG     WCI  30
$$


CITY           SKY/WX    TMP DP  RH WIND       PRES   REMARKS
BURLINGTON     CLOUDY    40  36  86 W10       29.60R WCI  33
CEDAR RAPIDS   LGT SNOW  31  31 100 N13       29.62R FOG     WCI  21
DES MOINES     LGT SNOW  27  24  89 N15G26    29.74R VSB 3/4 WCI  15
KIRKSVILLE     CLOUDY    36  34  92 NW10      29.67R FOG     WCI  28
OTTUMWA        CLOUDY    34  32  92 NW12      29.65R WCI  25
ST LOUIS       MOSUNNY   57  38  48 W18G24    29.63S
$$


CITY           SKY/WX    TMP DP  RH WIND       PRES   REMARKS
TERRE HAUTE    CLOUDY    65  53  65 W18       29.52R
EVANSVILLE     LGT RAIN  70  53  54 W16G24    29.57R
INDIANAPOLIS   LGT RAIN  63  55  75 SW17      29.51S
LAFAYETTE      CLOUDY    61  53  75 W14G22    29.48R
MADISON        FRZ DRZL  28  26  92 N20       29.57R FOG     WCI  15
MILWAUKEE      CLOUDY    36  33  89 N20G25    29.48S FOG     WCI  25
$$






USA.gov is the U.S. government's official web portal to all federal, state and local government web resources and services.